TITAN 3C TRANSTAGE R/B, 8751

Orbit data source: Space-Track

TITAN 3C TRANSTAGE R/B, 8751 is space debris in GEO originally from a launch on Mon, 15 Mar 1976 UTC launched from the Air Force Eastern Test Range (AFETR). Debris objects in space refer to the collection of defunct objects orbiting the Earth. Examples of debris include non-operational satellites, rocket bodies, and fragments generated from explosions, collisions, or faulty payload assembly.

Not visible in the next 10 days
TITAN 3C TRANSTAGE R/B details
Identifier
8751, 1976-023F
Orbit
GEO
Last TLE update2 days ago
Origin
Flag of USSAMSO (US)
ManufacturerMartin Marietta
MissionSpacecraft
Bus & MotorTRANSTAGE, Unknown motor
Mass~1,950 kg wet, ~1,950 kg dry
Launch date (UTC)
1976-03-15 (49 years ago)
Launch vehicleUnknown
Launch site
Air Force Eastern Test Range (AFETR)
Object type
Payload
Rocket body
Debris
Shape & HBRCyl + 2 Nozzle, 4.6 m
Radar Cross Section14.974 m², Large (>1 m²)

Expand to show TLE details & history

TLE from 2 days ago
0 TITAN 3C TRANSTAGE R/B
1 08751U 76023F   25034.12121392 -.00000021  00000-0  00000-0 0  9998
2 08751  20.8279  49.0155 0120970  91.8751  80.3441  0.98325149178305
Epoch: 2025-02-03T02:54Z
Definitive object data (Epoch: 2025-02-03T02:54:32.882Z)
Latitude2.28767°
Longitude45.85612°
Altitude36,259.828 km
Speed3.06 km/s
True Right ascension14h 52m 09s
True Declination2° 17' 07"
Sunlit
Object was in daylight at TLE epoch
Visualization TLE readout
Latitude-13.16379°
Longitude89.73805°
Altitude36,658.317 km
Speed3.032 km/s
Apparent Right ascension18h 05m 43s
Apparent Declination-16° 58' 44"
Sunlit
Object is in daylight
Visualization observer readout
Local Sidereal Time08:54:48
Azimuth70.317° E
Elevation-46.901°
Doppler factor1
Orbital elements
Apogee altitude36,858.941 km
Perigee altitude35,825.366 km
Semi-major axis42,720.29 km
Eccentricity0.012097
Inclination20.8279°
RAAN49.0155°
Arg. of periapsis91.8751°
True anomaly81.71402°
Mean anomaly80.3441°
Eccentric anomaly81.02873°
Mean motion0.24581 °/min
BSTARUnknown
Orbital period1464.57 mins
Loading historical data...
8751 neighbors
Authenticating...
Loading maneuver chart data...
Loading historical data...
Loading historical data...
Loading historical data...
Loading historical data...
Loading historical data...
Loading historical data...
Loading historical data...

TITAN 3C TRANSTAGE R/B Visibility forecast

Observer location: undefined°, undefined

TITAN 3C TRANSTAGE R/B is not visible in the next 10 days
Span
Click to sort rows by Start time (UTC) header in descending order
Start Az.
Max El. time (UTC)
Max El. Az.
Max El.
End time (UTC)
End Az.
|